CFG7LD EDDF-LEBL

Flight info

Callsign CFG7LD
Flight time N/A
Altitude 33000
Route ANEKI2L ANEKI Y163 HERBI Y164 MOPAN DCT LUTIX DCT BENOT DCT NEMOS DCT GEVEA/N0429F270 DCT INCUS DCT BALSI/N0458F350 DCT RETNO DCT TUPOX DCT MTG DCT DIVKO DCT NILDU DCT BISBA
Aircraft A321/M-SDE3FGHIRWY/LB1

Departure

Time N/A
Airport Frankfurt Main Airport (EDDF)

Arrival

Time 2026-05-05 15:48
Airport Josep Tarradellas Barcelona-El Prat Airport (LEBL)
Time Latitude Longitude Altitude Speed Heading
2026-05-05 14:54 44.96006 5.80015 34924 ft 396 kts 198°
2026-05-05 14:54 44.93346 5.79198 34926 ft 395 kts 198°
2026-05-05 14:55 44.87976 5.77549 34933 ft 395 kts 198°
2026-05-05 14:55 44.82585 5.75903 34912 ft 395 kts 198°
2026-05-05 14:56 44.77240 5.74265 34915 ft 395 kts 198°
2026-05-05 14:56 44.71849 5.72620 34916 ft 395 kts 198°
2026-05-05 14:57 44.66487 5.70980 34948 ft 396 kts 198°
2026-05-05 14:57 44.61101 5.69343 34948 ft 395 kts 198°
2026-05-05 14:58 44.55746 5.67717 34950 ft 395 kts 198°
2026-05-05 14:58 44.50375 5.66093 34945 ft 394 kts 198°
2026-05-05 14:59 44.45030 5.64484 34934 ft 394 kts 198°
2026-05-05 14:59 44.39662 5.62861 34934 ft 394 kts 198°
2026-05-05 15:00 44.35350 5.60903 34934 ft 388 kts 206°
2026-05-05 15:00 44.30342 5.58144 34932 ft 389 kts 206°
2026-05-05 15:01 44.25296 5.55383 34917 ft 389 kts 206°
2026-05-05 15:01 44.20274 5.52645 34910 ft 388 kts 206°
2026-05-05 15:02 44.15216 5.49893 34919 ft 390 kts 205°
2026-05-05 15:02 44.10174 5.47147 34926 ft 390 kts 205°
2026-05-05 15:03 44.05109 5.44398 34912 ft 389 kts 206°
2026-05-05 15:03 44.00068 5.41661 34919 ft 389 kts 205°
2026-05-05 15:04 43.95045 5.38937 34926 ft 389 kts 205°
2026-05-05 15:04 43.89988 5.36201 34909 ft 389 kts 206°
2026-05-05 15:05 43.82455 5.32133 34951 ft 388 kts 205°
2026-05-05 15:06 43.77433 5.29423 34936 ft 388 kts 205°
2026-05-05 15:06 43.72383 5.26713 34937 ft 388 kts 205°
2026-05-05 15:07 43.67347 5.24012 34925 ft 387 kts 205°
2026-05-05 15:07 43.62339 5.21338 34929 ft 387 kts 205°
2026-05-05 15:08 43.57345 5.18663 34929 ft 386 kts 205°
2026-05-05 15:08 43.52324 5.15973 34931 ft 386 kts 205°
2026-05-05 15:09 43.47311 5.13299 34932 ft 385 kts 206°
2026-05-05 15:09 43.42333 5.10650 34935 ft 385 kts 205°
2026-05-05 15:10 43.37500 5.07620 34934 ft 379 kts 216°
2026-05-05 15:10 43.33149 5.03511 34936 ft 378 kts 217°
2026-05-05 15:11 43.28815 4.99431 34926 ft 377 kts 217°
2026-05-05 15:11 43.24493 4.95370 34938 ft 376 kts 217°
2026-05-05 15:12 43.20168 4.91308 34957 ft 377 kts 217°
2026-05-05 15:12 43.15853 4.87262 34949 ft 377 kts 217°
2026-05-05 15:13 43.11518 4.83209 34928 ft 377 kts 217°
2026-05-05 15:13 43.07206 4.79180 34940 ft 376 kts 217°
2026-05-05 15:14 43.03142 4.74692 34935 ft 373 kts 223°
2026-05-05 15:14 42.99259 4.69983 34934 ft 373 kts 223°
2026-05-05 15:15 42.95380 4.65294 34936 ft 372 kts 223°
2026-05-05 15:15 42.91514 4.60639 34923 ft 372 kts 223°
2026-05-05 15:16 42.87634 4.55984 34963 ft 372 kts 223°
2026-05-05 15:16 42.83744 4.51305 34951 ft 372 kts 223°
2026-05-05 15:17 42.79852 4.46630 34942 ft 372 kts 223°
2026-05-05 15:17 42.75960 4.41963 34934 ft 372 kts 223°
2026-05-05 15:18 42.72078 4.37322 34931 ft 372 kts 223°
2026-05-05 15:18 42.68179 4.32678 34929 ft 372 kts 223°
2026-05-05 15:19 42.64313 4.28070 34930 ft 372 kts 223°
2026-05-05 15:19 42.60420 4.23433 34921 ft 372 kts 223°
2026-05-05 15:20 42.56524 4.18807 34954 ft 372 kts 222°
2026-05-05 15:20 42.52624 4.14178 34899 ft 372 kts 223°
2026-05-05 15:21 42.48741 4.09580 34905 ft 372 kts 223°
2026-05-05 15:21 42.44832 4.04970 34628 ft 370 kts 223°
2026-05-05 15:21 42.42887 4.02676 34396 ft 369 kts 222°
2026-05-05 15:22 42.40972 4.00422 34155 ft 368 kts 222°
2026-05-05 15:22 42.39038 3.98146 33914 ft 367 kts 222°
2026-05-05 15:22 42.37107 3.95873 33658 ft 366 kts 222°
2026-05-05 15:22 42.35182 3.93613 33228 ft 366 kts 222°
2026-05-05 15:23 42.33251 3.91347 32502 ft 366 kts 223°
2026-05-05 15:23 42.31342 3.89107 31825 ft 366 kts 223°
2026-05-05 15:23 42.29410 3.86839 31127 ft 367 kts 223°
2026-05-05 15:23 42.27497 3.84597 30476 ft 366 kts 223°
2026-05-05 15:24 42.25550 3.82313 29486 ft 373 kts 223°
2026-05-05 15:24 42.23601 3.80026 28513 ft 378 kts 223°
2026-05-05 15:24 42.21594 3.77676 27582 ft 381 kts 223°
2026-05-05 15:24 42.19580 3.75322 26572 ft 386 kts 222°
2026-05-05 15:25 42.17558 3.72960 25868 ft 385 kts 222°
2026-05-05 15:25 42.15534 3.70600 25316 ft 380 kts 222°
2026-05-05 15:25 42.13559 3.68306 25149 ft 365 kts 222°
2026-05-05 15:25 42.11687 3.66134 25018 ft 352 kts 222°
2026-05-05 15:26 42.09860 3.64011 24691 ft 344 kts 222°
2026-05-05 15:26 42.08102 3.61848 24455 ft 341 kts 227°
2026-05-05 15:26 42.06462 3.59543 24220 ft 340 kts 227°
2026-05-05 15:26 42.04819 3.57242 23993 ft 340 kts 227°
2026-05-05 15:27 42.03173 3.54945 23757 ft 340 kts 226°
2026-05-05 15:27 42.01548 3.52683 23424 ft 339 kts 226°
2026-05-05 15:27 41.99911 3.50403 23054 ft 338 kts 226°
2026-05-05 15:27 41.98277 3.48127 22715 ft 337 kts 226°
2026-05-05 15:28 41.96664 3.45877 22370 ft 336 kts 226°
2026-05-05 15:28 41.95039 3.43609 22042 ft 335 kts 226°
2026-05-05 15:28 41.93420 3.41355 21682 ft 334 kts 227°
2026-05-05 15:28 41.91811 3.39119 21372 ft 332 kts 227°
2026-05-05 15:29 41.90224 3.36915 21045 ft 330 kts 227°
2026-05-05 15:29 41.88618 3.34686 20704 ft 329 kts 227°
2026-05-05 15:29 41.87020 3.32469 20379 ft 328 kts 226°
2026-05-05 15:29 41.85456 3.30301 20181 ft 317 kts 226°
2026-05-05 15:30 41.83981 3.28202 20058 ft 305 kts 232°
2026-05-05 15:30 41.82761 3.25938 19932 ft 293 kts 234°
2026-05-05 15:30 41.81612 3.23761 19805 ft 281 kts 234°
2026-05-05 15:30 41.80504 3.21658 19536 ft 276 kts 234°
2026-05-05 15:31 41.79403 3.19568 19163 ft 274 kts 234°
2026-05-05 15:31 41.78302 3.17475 18773 ft 273 kts 234°
2026-05-05 15:31 41.77202 3.15386 18377 ft 273 kts 234°
2026-05-05 15:31 41.76106 3.13308 17958 ft 272 kts 234°
2026-05-05 15:32 41.75021 3.11255 17541 ft 271 kts 234°
2026-05-05 15:32 41.73930 3.09195 17122 ft 270 kts 234°
2026-05-05 15:32 41.72843 3.07141 16713 ft 269 kts 234°
2026-05-05 15:32 41.71775 3.05121 16349 ft 268 kts 234°
2026-05-05 15:33 41.70695 3.03078 15971 ft 266 kts 234°
2026-05-05 15:33 41.69623 3.01056 15608 ft 265 kts 234°
2026-05-05 15:33 41.68567 2.99063 15239 ft 265 kts 233°
2026-05-05 15:33 41.67495 2.97042 14875 ft 264 kts 233°
2026-05-05 15:34 41.66447 2.95061 14512 ft 263 kts 233°
2026-05-05 15:34 41.65392 2.93068 14155 ft 262 kts 233°
2026-05-05 15:34 41.64343 2.91094 13655 ft 260 kts 233°
2026-05-05 15:34 41.63303 2.89139 13086 ft 259 kts 233°
2026-05-05 15:35 41.62257 2.87173 12533 ft 257 kts 233°
2026-05-05 15:35 41.61222 2.85234 12027 ft 258 kts 233°
2026-05-05 15:35 41.60177 2.83282 11645 ft 258 kts 233°
2026-05-05 15:35 41.59142 2.81347 11277 ft 258 kts 233°
2026-05-05 15:36 41.58096 2.79387 10898 ft 258 kts 233°
2026-05-05 15:36 41.57057 2.77439 10673 ft 252 kts 233°
2026-05-05 15:36 41.56055 2.75561 10546 ft 243 kts 233°
2026-05-05 15:36 41.55084 2.73744 10357 ft 236 kts 233°
2026-05-05 15:37 41.54151 2.71999 10233 ft 231 kts 233°
2026-05-05 15:37 41.53219 2.70259 10110 ft 230 kts 233°
2026-05-05 15:37 41.52284 2.68516 9996 ft 231 kts 233°
2026-05-05 15:37 41.51349 2.66769 9741 ft 232 kts 233°
2026-05-05 15:38 41.50419 2.65035 9346 ft 230 kts 233°
2026-05-05 15:38 41.49495 2.63313 9009 ft 226 kts 233°
2026-05-05 15:38 41.48593 2.61634 8684 ft 222 kts 233°
2026-05-05 15:38 41.47699 2.59970 8372 ft 218 kts 233°
2026-05-05 15:39 41.46842 2.58291 8059 ft 217 kts 240°
2026-05-05 15:39 41.46214 2.56468 7758 ft 217 kts 244°
2026-05-05 15:39 41.45584 2.54624 7440 ft 217 kts 244°
2026-05-05 15:39 41.44962 2.52795 7140 ft 217 kts 244°
2026-05-05 15:40 41.44348 2.50974 6814 ft 217 kts 244°
2026-05-05 15:40 41.43716 2.49098 6303 ft 224 kts 245°
2026-05-05 15:40 41.43083 2.47222 5937 ft 223 kts 245°
2026-05-05 15:40 41.42452 2.45350 5622 ft 220 kts 245°
2026-05-05 15:41 41.41827 2.43499 5329 ft 216 kts 245°
2026-05-05 15:41 41.41216 2.41691 5046 ft 211 kts 245°
2026-05-05 15:41 41.40626 2.39945 4772 ft 207 kts 245°
2026-05-05 15:41 41.40036 2.38202 4510 ft 204 kts 245°
2026-05-05 15:42 41.39453 2.36480 4235 ft 203 kts 245°
2026-05-05 15:42 41.38890 2.34817 3957 ft 195 kts 245°
2026-05-05 15:42 41.38339 2.33193 3700 ft 189 kts 245°
2026-05-05 15:42 41.37812 2.31637 3481 ft 176 kts 245°
2026-05-05 15:43 41.37341 2.30248 3236 ft 154 kts 245°
2026-05-05 15:43 41.36908 2.28974 3037 ft 148 kts 245°
2026-05-05 15:43 41.36495 2.27760 2848 ft 143 kts 245°
2026-05-05 15:43 41.36088 2.26560 2657 ft 142 kts 243°
2026-05-05 15:44 41.35678 2.25354 2468 ft 142 kts 243°
2026-05-05 15:44 41.35266 2.24144 2282 ft 144 kts 242°
2026-05-05 15:44 41.34858 2.22945 2085 ft 148 kts 244°
2026-05-05 15:44 41.34433 2.21697 1887 ft 146 kts 244°
2026-05-05 15:45 41.34155 2.20880 1758 ft 144 kts 243°
2026-05-05 15:45 41.33744 2.19670 1554 ft 141 kts 242°
2026-05-05 15:45 41.33197 2.18066 1289 ft 145 kts 243°
2026-05-05 15:45 41.32915 2.17237 1191 ft 147 kts 243°
2026-05-05 15:46 41.32496 2.16010 1023 ft 145 kts 245°
2026-05-05 15:46 41.32082 2.14791 827 ft 144 kts 244°
2026-05-05 15:46 41.31666 2.13558 642 ft 147 kts 243°
2026-05-05 15:46 41.31237 2.12323 377 ft 149 kts 245°
2026-05-05 15:47 41.30805 2.11043 168 ft 152 kts 242°
2026-05-05 15:47 41.30374 2.09784 30 ft 148 kts 243°
2026-05-05 15:47 41.29990 2.08680 24 ft 105 kts 245°
2026-05-05 15:47 41.29758 2.08007 18 ft 56 kts 247°
2026-05-05 15:48 41.29622 2.07598 17 ft 45 kts 244°
2026-05-05 15:48 41.29499 2.07262 19 ft 21 kts 245°
2026-05-05 15:48 41.29451 2.07181 17 ft 9 kts 183°
2026-05-05 15:48 41.29399 2.07207 16 ft 3 kts 154°
2026-05-05 15:49 41.29379 2.07220 16 ft 3 kts 154°
2026-05-05 15:49 41.29362 2.07231 16 ft 2 kts 155°
2026-05-05 15:49 41.29342 2.07242 16 ft 8 kts 163°
2026-05-05 15:49 41.29290 2.07189 17 ft 11 kts 250°
2026-05-05 15:50 41.29263 2.07099 16 ft 10 kts 246°
2026-05-05 15:50 41.29220 2.07048 16 ft 8 kts 178°
2026-05-05 15:50 41.29173 2.07077 17 ft 6 kts 154°
2026-05-05 15:50 41.29149 2.07101 18 ft 3 kts 131°
2026-05-05 15:51 41.29129 2.07149 19 ft 6 kts 130°
2026-05-05 15:51 41.29099 2.07170 19 ft 3 kts 158°
2026-05-05 15:51 41.29085 2.07177 19 ft 1 kts 156°
2026-05-05 15:51 41.29079 2.07181 19 ft 0 kts 156°